Time,TemperatureF,DewpointF,PressureIn,WindDirection,WindDirectionDegrees,WindSpeedMPH,WindSpeedGustMPH,Humidity,HourlyPrecipIn,Conditions,Clouds,dailyrainin,SolarRadiationWatts/m^2,SoftwareType,DateUTC
2013-02-12 00:01:00,8.0,5.0,-100.00,West,277,4.0,7.0,86,0.00,,,0.00,0.000000,,2013-02-12 06:01:00,
2013-02-12 00:32:00,5.0,1.0,-100.00,SW,219,4.0,5.0,83,0.00,,,0.00,0.000000,,2013-02-12 06:32:00,
2013-02-12 00:42:00,5.0,1.0,-100.00,SW,219,4.0,5.0,83,0.00,,,0.00,0.000000,,2013-02-12 06:42:00,
2013-02-12 00:52:00,5.0,1.0,-100.00,SW,219,4.0,5.0,83,0.00,,,0.00,0.000000,,2013-02-12 06:52:00,
2013-02-12 01:01:00,5.0,1.0,-100.00,SW,219,4.0,5.0,83,0.00,,,0.00,0.000000,,2013-02-12 07:01:00,
2013-02-12 01:32:00,5.0,1.0,-100.00,SW,227,3.0,5.0,83,0.00,,,0.00,0.000000,,2013-02-12 07:32:00,
2013-02-12 01:42:00,5.0,1.0,-100.00,SW,227,3.0,5.0,83,0.00,,,0.00,0.000000,,2013-02-12 07:42:00,
2013-02-12 01:52:00,5.0,1.0,-100.00,SW,227,3.0,5.0,83,0.00,,,0.00,0.000000,,2013-02-12 07:52:00,
2013-02-12 02:01:00,5.0,1.0,-100.00,SW,227,3.0,5.0,83,0.00,,,0.00,0.000000,,2013-02-12 08:01:00,
2013-02-12 02:32:00,9.0,5.0,-100.00,SSW,204,2.0,4.0,85,0.00,,,0.00,0.000000,,2013-02-12 08:32:00,
2013-02-12 02:42:00,9.0,5.0,-100.00,SSW,204,2.0,4.0,85,0.00,,,0.00,0.000000,,2013-02-12 08:42:00,
2013-02-12 02:52:00,9.0,5.0,-100.00,SSW,204,2.0,4.0,85,0.00,,,0.00,0.000000,,2013-02-12 08:52:00,
2013-02-12 03:01:00,9.0,5.0,-100.00,SSW,204,2.0,4.0,85,0.00,,,0.00,0.000000,,2013-02-12 09:01:00,
2013-02-12 03:32:00,12.0,9.0,-100.00,SSW,205,3.0,7.0,86,0.00,,,0.00,0.000000,,2013-02-12 09:32:00,
2013-02-12 03:42:00,12.0,9.0,-100.00,SSW,205,3.0,7.0,86,0.00,,,0.00,0.000000,,2013-02-12 09:42:00,
2013-02-12 03:52:00,12.0,9.0,-100.00,SSW,205,3.0,7.0,86,0.00,,,0.00,0.000000,,2013-02-12 09:52:00,
2013-02-12 04:01:00,12.0,9.0,-100.00,SSW,205,3.0,7.0,86,0.00,,,0.00,0.000000,,2013-02-12 10:01:00,
2013-02-12 04:32:00,14.0,11.0,-100.00,SSW,197,4.0,7.0,87,0.00,,,0.00,0.000000,,2013-02-12 10:32:00,
2013-02-12 04:43:00,14.0,11.0,-100.00,SSW,197,4.0,7.0,87,0.00,,,0.00,0.000000,,2013-02-12 10:43:00,
2013-02-12 04:52:00,14.0,11.0,-100.00,SSW,197,4.0,7.0,87,0.00,,,0.00,0.000000,,2013-02-12 10:52:00,
2013-02-12 05:01:00,14.0,11.0,-100.00,SSW,197,4.0,7.0,87,0.00,,,0.00,0.000000,,2013-02-12 11:01:00,
2013-02-12 05:32:00,16.0,13.0,-100.00,SSW,200,4.0,7.0,88,0.00,,,0.00,0.000000,,2013-02-12 11:32:00,
2013-02-12 05:42:00,16.0,13.0,-100.00,SSW,200,4.0,7.0,88,0.00,,,0.00,0.000000,,2013-02-12 11:42:00,
2013-02-12 05:52:00,16.0,13.0,-100.00,SSW,200,4.0,7.0,88,0.00,,,0.00,0.000000,,2013-02-12 11:52:00,
2013-02-12 06:01:00,16.0,13.0,-100.00,SSW,200,4.0,7.0,88,0.00,,,0.00,0.000000,,2013-02-12 12:01:00,
2013-02-12 06:32:00,15.0,12.0,-100.00,SSW,201,5.0,9.0,87,0.00,,,0.00,0.000000,,2013-02-12 12:32:00,
2013-02-12 06:42:00,15.0,12.0,-100.00,SSW,201,5.0,9.0,87,0.00,,,0.00,0.000000,,2013-02-12 12:42:00,
2013-02-12 06:53:00,15.0,12.0,-100.00,SSW,201,5.0,9.0,87,0.00,,,0.00,0.000000,,2013-02-12 12:53:00,
2013-02-12 07:01:00,15.0,12.0,-100.00,SSW,201,5.0,9.0,87,0.00,,,0.00,0.000000,,2013-02-12 13:01:00,
2013-02-12 07:32:00,15.0,12.0,-100.00,South,190,6.0,9.0,86,0.00,,,0.00,0.000000,,2013-02-12 13:32:00,
2013-02-12 07:42:00,15.0,12.0,-100.00,South,190,6.0,9.0,86,0.00,,,0.00,0.000000,,2013-02-12 13:42:00,
2013-02-12 07:52:00,15.0,12.0,-100.00,South,190,6.0,9.0,86,0.00,,,0.00,0.000000,,2013-02-12 13:52:00,
2013-02-12 08:01:00,15.0,12.0,-100.00,South,190,6.0,9.0,86,0.00,,,0.00,0.000000,,2013-02-12 14:01:00,
2013-02-12 08:32:00,16.0,12.0,-100.00,SSW,202,7.0,14.0,84,0.00,,,0.00,20.000000,,2013-02-12 14:32:00,
2013-02-12 08:42:00,16.0,12.0,-100.00,SSW,202,7.0,14.0,84,0.00,,,0.00,20.000000,,2013-02-12 14:42:00,
2013-02-12 08:52:00,16.0,12.0,-100.00,SSW,202,7.0,14.0,84,0.00,,,0.00,20.000000,,2013-02-12 14:52:00,
2013-02-12 09:02:00,16.0,12.0,-100.00,SSW,202,7.0,14.0,84,0.00,,,0.00,20.000000,,2013-02-12 15:02:00,
2013-02-12 09:32:00,18.0,13.0,-100.00,SSW,205,6.0,14.0,82,0.00,,,0.00,91.000000,,2013-02-12 15:32:00,
2013-02-12 09:42:00,18.0,13.0,-100.00,SSW,205,6.0,14.0,82,0.00,,,0.00,91.000000,,2013-02-12 15:42:00,
2013-02-12 09:52:00,18.0,13.0,-100.00,SSW,205,6.0,14.0,82,0.00,,,0.00,91.000000,,2013-02-12 15:52:00,
2013-02-12 10:01:00,18.0,13.0,-100.00,SSW,205,6.0,14.0,82,0.00,,,0.00,91.000000,,2013-02-12 16:01:00,
2013-02-12 10:32:00,20.0,14.0,-100.00,SSW,212,8.0,15.0,76,0.00,,,0.00,237.000000,,2013-02-12 16:32:00,
2013-02-12 10:42:00,20.0,14.0,-100.00,SSW,212,8.0,15.0,76,0.00,,,0.00,237.000000,,2013-02-12 16:42:00,
2013-02-12 10:52:00,20.0,14.0,-100.00,SSW,212,8.0,15.0,76,0.00,,,0.00,237.000000,,2013-02-12 16:52:00,
2013-02-12 11:01:00,20.0,14.0,-100.00,SSW,212,8.0,15.0,76,0.00,,,0.00,237.000000,,2013-02-12 17:01:00,
2013-02-12 11:32:00,22.0,15.0,-100.00,SSW,212,7.0,13.0,73,0.00,,,0.00,322.000000,,2013-02-12 17:32:00,
2013-02-12 11:42:00,22.0,15.0,-100.00,SSW,212,7.0,13.0,73,0.00,,,0.00,322.000000,,2013-02-12 17:42:00,
2013-02-12 11:52:00,22.0,15.0,-100.00,SSW,212,7.0,13.0,73,0.00,,,0.00,322.000000,,2013-02-12 17:52:00,
2013-02-12 12:01:00,22.0,15.0,-100.00,SSW,212,7.0,13.0,73,0.00,,,0.00,322.000000,,2013-02-12 18:01:00,
2013-02-12 13:32:00,30.0,17.0,-100.00,SSW,199,7.0,12.0,59,-99.99,,,-99.99,584.000000,,2013-02-12 19:32:00,
2013-02-12 13:42:00,30.0,17.0,-100.00,SSW,199,7.0,12.0,59,-99.99,,,-99.99,584.000000,,2013-02-12 19:42:00,
2013-02-12 13:52:00,30.0,17.0,-100.00,SSW,199,7.0,12.0,59,-99.99,,,-99.99,584.000000,,2013-02-12 19:52:00,
2013-02-12 14:01:00,30.0,17.0,-100.00,SSW,199,7.0,12.0,59,-99.99,,,-99.99,584.000000,,2013-02-12 20:01:00,
2013-02-12 15:32:00,32.0,19.0,-100.00,WSW,248,11.0,15.0,57,-99.99,,,0.00,473.000000,,2013-02-12 21:32:00,
2013-02-12 15:42:00,32.0,19.0,-100.00,WSW,248,11.0,15.0,57,-99.99,,,0.00,473.000000,,2013-02-12 21:42:00,
2013-02-12 15:52:00,32.0,19.0,-100.00,WSW,248,11.0,15.0,57,-99.99,,,0.00,473.000000,,2013-02-12 21:52:00,
2013-02-12 16:01:00,32.0,19.0,-100.00,WSW,248,11.0,15.0,57,-99.99,,,0.00,473.000000,,2013-02-12 22:01:00,
2013-02-12 16:32:00,31.0,19.0,-100.00,West,260,9.0,16.0,60,0.00,,,0.00,318.000000,,2013-02-12 22:32:00,
2013-02-12 16:42:00,31.0,19.0,-100.00,West,260,9.0,16.0,60,0.00,,,0.00,318.000000,,2013-02-12 22:42:00,
2013-02-12 16:52:00,31.0,19.0,-100.00,West,260,9.0,16.0,60,0.00,,,0.00,318.000000,,2013-02-12 22:52:00,
2013-02-12 17:01:00,31.0,19.0,-100.00,West,260,9.0,16.0,60,0.00,,,0.00,318.000000,,2013-02-12 23:01:00,
2013-02-12 17:32:00,29.0,18.0,-100.00,WSW,255,8.0,12.0,63,0.00,,,0.00,159.000000,,2013-02-12 23:32:00,
2013-02-12 17:42:00,29.0,18.0,-100.00,WSW,255,8.0,12.0,63,0.00,,,0.00,159.000000,,2013-02-12 23:42:00,
2013-02-12 17:52:00,29.0,18.0,-100.00,WSW,255,8.0,12.0,63,0.00,,,0.00,159.000000,,2013-02-12 23:52:00,
2013-02-12 18:02:00,29.0,18.0,-100.00,WSW,255,8.0,12.0,63,0.00,,,0.00,159.000000,,2013-02-13 00:02:00,
2013-02-12 18:32:00,27.0,18.0,-100.00,WSW,237,7.0,10.0,68,0.00,,,0.00,20.000000,,2013-02-13 00:32:00,
2013-02-12 18:42:00,27.0,18.0,-100.00,WSW,237,7.0,10.0,68,0.00,,,0.00,20.000000,,2013-02-13 00:42:00,
2013-02-12 18:52:00,27.0,18.0,-100.00,WSW,237,7.0,10.0,68,0.00,,,0.00,20.000000,,2013-02-13 00:52:00,
2013-02-12 19:01:00,27.0,18.0,-100.00,WSW,237,7.0,10.0,68,0.00,,,0.00,20.000000,,2013-02-13 01:01:00,
2013-02-12 20:42:00,26.0,18.0,-100.00,SW,235,8.0,13.0,71,-99.99,,,0.00,0.000000,,2013-02-13 02:42:00,
2013-02-12 20:52:00,26.0,18.0,-100.00,SW,235,8.0,13.0,71,-99.99,,,0.00,0.000000,,2013-02-13 02:52:00,
2013-02-12 21:01:00,26.0,18.0,-100.00,SW,235,8.0,13.0,71,-99.99,,,0.00,0.000000,,2013-02-13 03:01:00,
2013-02-12 21:32:00,25.0,18.0,-100.00,WSW,253,9.0,14.0,73,0.00,,,0.00,0.000000,,2013-02-13 03:32:00,
2013-02-12 21:42:00,25.0,18.0,-100.00,WSW,253,9.0,14.0,73,0.00,,,0.00,0.000000,,2013-02-13 03:42:00,
2013-02-12 21:52:00,25.0,18.0,-100.00,WSW,253,9.0,14.0,73,0.00,,,0.00,0.000000,,2013-02-13 03:52:00,
2013-02-12 22:01:00,25.0,18.0,-100.00,WSW,253,9.0,14.0,73,0.00,,,0.00,0.000000,,2013-02-13 04:01:00,
2013-02-12 22:32:00,24.0,17.0,-100.00,WSW,255,8.0,12.0,75,0.00,,,0.00,0.000000,,2013-02-13 04:32:00,
2013-02-12 22:42:00,24.0,17.0,-100.00,WSW,255,8.0,12.0,75,0.00,,,0.00,0.000000,,2013-02-13 04:42:00,
2013-02-12 22:52:00,24.0,17.0,-100.00,WSW,255,8.0,12.0,75,0.00,,,0.00,0.000000,,2013-02-13 04:52:00,
2013-02-12 23:01:00,24.0,17.0,-100.00,WSW,255,8.0,12.0,75,0.00,,,0.00,0.000000,,2013-02-13 05:01:00,
2013-02-12 23:32:00,24.0,18.0,-100.00,West,276,7.0,10.0,79,0.00,,,0.00,0.000000,,2013-02-13 05:32:00,
2013-02-12 23:42:00,24.0,18.0,-100.00,West,276,7.0,10.0,79,0.00,,,0.00,0.000000,,2013-02-13 05:42:00,
2013-02-12 23:52:00,24.0,18.0,-100.00,West,276,7.0,10.0,79,0.00,,,0.00,0.000000,,2013-02-13 05:52:00,